JQ1YUX-13 Tokyo Ota-ku JP current weather conditions

sailwx.info

Wind from 192

Air temperature 19.4° C
Dewpoint 17.9° C

Last reported at 2014-Sep-21 15:52 UTC.
Time now 2014-Sep-21 16:12 UTC

Location: N 35°35' E 139°40'.
View on Google Maps.

See reports from other nearby stations

  
Tides and Currents Weather Stations Pressure Air Temp Water Temp Dewpoint Dewpoint Depression Visibility Wind Speed Wind Dir Waves Ship Positions
date/time (UTC)wind fromknots sea level pressurealtimeterstation pressurevisibilityair tempwater tempwave heightnotes
2014-Sep-21 15:52 192 19.4
2014-Sep-21 15:22 192 20.0
2014-Sep-21 14:52 191 20.0
2014-Sep-21 14:22 192 20.0
2014-Sep-21 13:52 191 20.6
2014-Sep-21 13:22 192 20.6
2014-Sep-21 12:52 192 20.6
2014-Sep-21 12:22 191 20.6
2014-Sep-21 11:52 192 21.1
2014-Sep-21 11:22 191 21.1
2014-Sep-21 10:52 191 21.7
2014-Sep-21 10:22 192 21.7
2014-Sep-21 09:52 205 21.7
2014-Sep-21 09:22 205 22.2
2014-Sep-21 08:52 206 23.3
2014-Sep-21 08:22 287 23.9
2014-Sep-21 07:52 311 25.0
2014-Sep-21 07:22 215 26.1
2014-Sep-21 06:52 294 26.1
2014-Sep-21 06:22 294 26.1
2014-Sep-21 05:52 259 26.7
2014-Sep-21 05:22 030 27.8
2014-Sep-21 04:52 033 26.7
2014-Sep-21 04:22 346 26.7
2014-Sep-21 03:52 024 0 gusting 4 26.7
2014-Sep-21 03:22 223 26.7
2014-Sep-21 02:52 012 25.6
2014-Sep-21 02:22 164 25.0
2014-Sep-21 01:52 028 23.9
2014-Sep-21 01:22 355 23.9
2014-Sep-21 00:52 042 22.8
2014-Sep-21 00:22 355 0 21.7
2014-Sep-20 23:52 355 1 gusting 3 20.6
2014-Sep-20 23:22 342 19.4
2014-Sep-20 22:52 17.8
2014-Sep-20 22:22 009 17.2
2014-Sep-20 21:52 348 16.1
2014-Sep-20 21:22 319 15.6
2014-Sep-20 20:52 325 15.6
2014-Sep-20 20:22 355 15.6
2014-Sep-20 19:52 355 16.1
2014-Sep-20 19:22 339 16.1
2014-Sep-20 18:52 355 16.1
2014-Sep-20 18:22 16.1
2014-Sep-20 17:52 344 16.7
2014-Sep-20 17:22 345 16.1
2014-Sep-20 16:52 344 16.7
2014-Sep-20 16:22 344 16.7
2014-Sep-20 15:52 344 16.7
2014-Sep-20 15:22 345 17.2
2014-Sep-20 14:52 345 17.2
2014-Sep-20 14:22 344 18.3
2014-Sep-20 13:52 338 19.4
2014-Sep-20 13:22 009 19.4
2014-Sep-20 12:52 035 20.0
2014-Sep-20 12:22 025 20.0
2014-Sep-20 11:52 349 20.6
2014-Sep-20 11:22 030 20.6
2014-Sep-20 10:52 021 0 gusting 6 20.6
2014-Sep-20 10:22 041 20.6
2014-Sep-20 09:52 051 20.6
2014-Sep-20 09:22 041 20.6
2014-Sep-20 08:52 033 20.6
2014-Sep-20 08:22 024 0 20.6
2014-Sep-20 07:52 005 1 gusting 3 20.6
2014-Sep-20 07:22 009 3 gusting 5 20.6
2014-Sep-20 06:52 014 0 gusting 3 21.1
2014-Sep-20 06:22 344 21.1
2014-Sep-20 05:52 053 2 gusting 4 21.1
2014-Sep-20 05:22 032 1 gusting 2 21.1
2014-Sep-20 04:52 038 21.1
2014-Sep-20 04:22 063 21.7
2014-Sep-20 03:52 028 21.7
2014-Sep-20 03:22 031 2 gusting 5 21.7
2014-Sep-20 02:52 044 21.1
2014-Sep-20 02:22 032 1 gusting 0 21.1
2014-Sep-20 01:52 039 0 gusting 3 21.1
2014-Sep-20 01:22 032 0 gusting 1 21.1
2014-Sep-20 00:52 041 3 gusting 6 21.1
2014-Sep-20 00:22 033 20.6
2014-Sep-19 23:52 037 20.6
2014-Sep-19 23:22 040 2 gusting 6 20.6
2014-Sep-19 22:52 017 20.0
2014-Sep-19 22:22 046 20.0
2014-Sep-19 21:52 032 19.4
2014-Sep-19 21:22 038 0 gusting 4 20.0
2014-Sep-19 20:52 20.0
2014-Sep-19 20:22 015 1 gusting 6 19.4
2014-Sep-19 19:52 355 19.4
2014-Sep-19 19:22 337 19.4
2014-Sep-19 18:52 19.4
2014-Sep-19 18:22 345 0 gusting 0 20.0
2014-Sep-19 17:52 329 0 gusting 4 20.0
2014-Sep-19 17:22 011 3 gusting 6 20.0
2014-Sep-19 16:52 345 20.0
2014-Sep-19 16:22 349 20.6